When you browse on this site, cookies collect data to enhance your experience and personalize the content and advertising you see.
Visit our Privacy Policy to learn more. By continuing to use the site, you agree to this use of cookies and data.
  • In Czech Republic
  • List of Countries
  • For 7 days
  • Water Temperature
  • Satellite Maps
  • Weather Map
  • Weather Widgets
  • user-avatar
    Login

    Hourly Weather Klagenfurt

    Today, 25 June, Tuesday

    Time Temperature Precipitation Wind Pressure Humidity
    00:00 +15°C° 0 mm 0 mps 695 mmHg 92%
    01:00 +15°C° 0 mm 0 mps 695 mmHg 93%
    02:00 +14°C° 0 mm 0 mps 695 mmHg 93%
    03:00 +14°C° 0 mm 0 mps 695 mmHg 93%
    04:00 +15°C° 0 mm 1 mps 694 mmHg 93%
    05:00 +16°C° 0 mm 0 mps 695 mmHg 90%
    06:00 +17°C° 0 mm 0 mps 695 mmHg 88%
    07:00 +19°C° 0 mm 0 mps 696 mmHg 83%
    08:00 +23°C° 0 mm 1 mps 696 mmHg 74%
    09:00 +25°C° 0 mm 1 mps 697 mmHg 65%
    10:00 +27°C° 0 mm 1 mps 697 mmHg 56%
    11:00 +28°C° 0 mm 1 mps 697 mmHg 53%
    12:00 +28°C° 0 mm 1 mps 697 mmHg 50%
    13:00 +29°C° 0 mm 1 mps 697 mmHg 48%
    14:00 +29°C° 0 mm 1 mps 697 mmHg 49%
    15:00 +29°C° 0 mm 1 mps 697 mmHg 50%
    16:00 +29°C° 0 mm 1 mps 697 mmHg 51%
    17:00 +27°C° 0 mm 1 mps 697 mmHg 60%
    18:00 +26°C° 0 mm 1 mps 697 mmHg 70%
    19:00 +24°C° 0 mm 1 mps 697 mmHg 80%
    20:00 +22°C° 0 mm 1 mps 697 mmHg 83%
    21:00 +21°C° 0 mm 1 mps 697 mmHg 87%
    22:00 +18°C° 0 mm 0 mps 697 mmHg 91%
    23:00 +17°C° 0 mm 0 mps 697 mmHg 92%

    Tomorrow, 26 June, Wednesday

    Time Temperature Precipitation Wind Pressure Humidity
    00:00 +17°C° 0 mm 0 mps 697 mmHg 93%
    01:00 +17°C° 0 mm 0 mps 697 mmHg 94%
    02:00 +16°C° 0 mm 0 mps 697 mmHg 94%
    03:00 +16°C° 0 mm 0 mps 696 mmHg 95%
    04:00 +16°C° 0 mm 0 mps 696 mmHg 95%
    05:00 +17°C° 0 mm 0 mps 696 mmHg 90%
    06:00 +19°C° 0 mm 0 mps 697 mmHg 86%
    07:00 +21°C° 0 mm 0 mps 697 mmHg 81%
    08:00 +25°C° 0 mm 1 mps 698 mmHg 72%
    09:00 +27°C° 0 mm 1 mps 698 mmHg 63%
    10:00 +29°C° 0 mm 1 mps 698 mmHg 55%
    11:00 +30°C° 0 mm 1 mps 698 mmHg 50%
    12:00 +31°C° 0 mm 1 mps 698 mmHg 45%
    13:00 +32°C° 0 mm 1 mps 698 mmHg 40%
    14:00 +32°C° 0 mm 1 mps 698 mmHg 41%
    15:00 +31°C° 0 mm 1 mps 698 mmHg 42%
    16:00 +31°C° 0 mm 1 mps 697 mmHg 44%
    17:00 +29°C° 0 mm 1 mps 697 mmHg 54%
    18:00 +27°C° 0 mm 1 mps 697 mmHg 65%
    19:00 +25°C° 0 mm 1 mps 696 mmHg 75%
    20:00 +24°C° 0 mm 1 mps 696 mmHg 78%
    21:00 +23°C° 0 mm 1 mps 696 mmHg 80%
    22:00 +21°C° 0 mm 1 mps 696 mmHg 82%
    23:00 +21°C° 0 mm 1 mps 696 mmHg 83%

    Day after tomorrow, 27 June, Thursday

    Time Temperature Precipitation Wind Pressure Humidity
    00:00 +21°C° 0 mm 1 mps 696 mmHg 84%
    01:00 +20°C° 0 mm 1 mps 696 mmHg 85%
    02:00 +20°C° 0 mm 1 mps 695 mmHg 85%
    03:00 +20°C° 0 mm 1 mps 695 mmHg 86%
    04:00 +19°C° 0 mm 1 mps 695 mmHg 86%
    05:00 +21°C° 0 mm 1 mps 695 mmHg 80%
    06:00 +23°C° 0 mm 1 mps 695 mmHg 74%
    07:00 +22°C° 0 mm 0 mps 695 mmHg 68%
    08:00 +27°C° 0 mm 1 mps 696 mmHg 60%
    09:00 +29°C° 0 mm 1 mps 696 mmHg 52%
    10:00 +32°C° 0 mm 1 mps 696 mmHg 44%
    11:00 +33°C° 0 mm 1 mps 696 mmHg 40%
    12:00 +34°C° 0 mm 1 mps 696 mmHg 36%
    13:00 +35°C° 0 mm 1 mps 696 mmHg 31%
    14:00 +35°C° 0 mm 1 mps 695 mmHg 33%
    15:00 +34°C° 0 mm 1 mps 695 mmHg 34%
    16:00 +34°C° 0 mm 1 mps 695 mmHg 35%
    17:00 +32°C° 0 mm 1 mps 694 mmHg 47%
    18:00 +29°C° 0 mm 1 mps 694 mmHg 59%
    19:00 +27°C° 0 mm 1 mps 693 mmHg 71%
    20:00 +25°C° 0.5 mm 1 mps 693 mmHg 75%
    21:00 +24°C° 0.5 mm 1 mps 693 mmHg 79%
    22:00 +20°C° 0.5 mm 0 mps 693 mmHg 83%
    23:00 +19°C° 0.3 mm 0 mps 693 mmHg 87%

    28 June, Friday

    Time Temperature Precipitation Wind Pressure Humidity
    00:00 +18°C° 0.3 mm 0 mps 693 mmHg 91%
    01:00 +17°C° 0.3 mm 0 mps 693 mmHg 95%
    02:00 +19°C° 0 mm 1 mps 693 mmHg 95%
    03:00 +19°C° 0 mm 1 mps 693 mmHg 96%
    04:00 +18°C° 0 mm 1 mps 693 mmHg 97%
    05:00 +19°C° 0 mm 1 mps 693 mmHg 94%
    06:00 +19°C° 0 mm 1 mps 693 mmHg 91%
    07:00 +19°C° 0 mm 1 mps 693 mmHg 88%
    08:00 +21°C° 0 mm 1 mps 693 mmHg 80%
    09:00 +22°C° 0 mm 1 mps 694 mmHg 71%
    10:00 +24°C° 0 mm 1 mps 694 mmHg 62%
    11:00 +25°C° 0 mm 1 mps 694 mmHg 57%
    12:00 +27°C° 0 mm 2 mps 694 mmHg 52%
    13:00 +28°C° 0 mm 2 mps 694 mmHg 47%
    14:00 +28°C° 0 mm 2 mps 694 mmHg 49%
    15:00 +27°C° 0 mm 2 mps 694 mmHg 50%
    16:00 +27°C° 0 mm 2 mps 693 mmHg 52%
    17:00 +25°C° 0 mm 2 mps 693 mmHg 61%
    18:00 +23°C° 0 mm 2 mps 693 mmHg 70%
    19:00 +21°C° 0 mm 1 mps 693 mmHg 79%
    20:00 +20°C° 0 mm 1 mps 693 mmHg 82%
    21:00 +18°C° 0 mm 1 mps 693 mmHg 85%
    22:00 +16°C° 0 mm 1 mps 693 mmHg 88%
    23:00 +15°C° 0 mm 1 mps 693 mmHg 89%

    29 June, Saturday

    Time Temperature Precipitation Wind Pressure Humidity
    00:00 +14°C° 0 mm 0 mps 693 mmHg 89%
    01:00 +13°C° 0 mm 0 mps 693 mmHg 90%
    02:00 +13°C° 0 mm 0 mps 693 mmHg 91%
    03:00 +13°C° 0 mm 0 mps 693 mmHg 91%
    04:00 +12°C° 0 mm 0 mps 693 mmHg 92%
    05:00 +14°C° 0 mm 0 mps 693 mmHg 86%
    06:00 +15°C° 0 mm 0 mps 693 mmHg 80%
    07:00 +19°C° 0 mm 1 mps 694 mmHg 73%
    08:00 +21°C° 0 mm 1 mps 694 mmHg 67%
    09:00 +22°C° 0 mm 1 mps 694 mmHg 60%
    10:00 +24°C° 0 mm 1 mps 695 mmHg 54%
    11:00 +25°C° 0 mm 1 mps 695 mmHg 50%
    12:00 +26°C° 0 mm 2 mps 695 mmHg 46%
    13:00 +27°C° 0 mm 2 mps 695 mmHg 42%
    14:00 +27°C° 0 mm 2 mps 694 mmHg 44%
    15:00 +27°C° 0 mm 2 mps 694 mmHg 45%
    16:00 +26°C° 0 mm 2 mps 694 mmHg 47%
    17:00 +25°C° 0 mm 1 mps 694 mmHg 56%
    18:00 +23°C° 0 mm 1 mps 694 mmHg 65%
    19:00 +21°C° 0 mm 1 mps 693 mmHg 75%
    20:00 +19°C° 0 mm 1 mps 693 mmHg 79%
    21:00 +18°C° 0 mm 1 mps 693 mmHg 82%
    22:00 +15°C° 0 mm 1 mps 693 mmHg 86%
    23:00 +15°C° 0 mm 1 mps 693 mmHg 85%

    30 June, Sunday

    Time Temperature Precipitation Wind Pressure Humidity
    00:00 +14°C° 0 mm 1 mps 693 mmHg 85%
    01:00 +13°C° 0 mm 0 mps 693 mmHg 84%
    02:00 +12°C° 0 mm 0 mps 692 mmHg 85%
    03:00 +12°C° 0 mm 0 mps 692 mmHg 85%
    04:00 +12°C° 0 mm 0 mps 692 mmHg 86%
    05:00 +14°C° 0 mm 0 mps 692 mmHg 80%
    06:00 +16°C° 0 mm 0 mps 693 mmHg 74%
    07:00 +18°C° 0 mm 0 mps 693 mmHg 68%
    08:00 +20°C° 0 mm 0 mps 694 mmHg 63%
    09:00 +24°C° 0 mm 1 mps 694 mmHg 57%
    10:00 +26°C° 0 mm 1 mps 694 mmHg 51%
    11:00 +27°C° 0 mm 1 mps 694 mmHg 49%
    12:00 +28°C° 0 mm 1 mps 694 mmHg 46%
    13:00 +30°C° 0 mm 1 mps 694 mmHg 44%
    14:00 +29°C° 0 mm 1 mps 694 mmHg 45%
    15:00 +29°C° 0 mm 1 mps 694 mmHg 45%
    16:00 +29°C° 0 mm 1 mps 694 mmHg 46%
    17:00 +28°C° 0 mm 1 mps 693 mmHg 56%
    18:00 +26°C° 0 mm 1 mps 693 mmHg 66%
    19:00 +24°C° 0 mm 1 mps 693 mmHg 76%
    20:00 +23°C° 0 mm 1 mps 693 mmHg 79%
    21:00 +21°C° 0 mm 1 mps 693 mmHg 82%
    22:00 +20°C° 0 mm 1 mps 693 mmHg 84%
    23:00 +19°C° 0 mm 1 mps 693 mmHg 86%
    Show more